Blair, NE

7:50 AM CDT on March 29, 2017 (GMT -0500)
Blair Municipal

Weather History for KBTA - August, 2014

Change the Weather History Date:

Friday, August 22, 2014

  Actual Average (KOMA) Record (KOMA)
Temperature  
Mean Temperature 81 °F -  
Max Temperature 90 °F 85 °F 100 °F (1975)
Min Temperature 72 °F 64 °F 48 °F (1923)
Cooling Degree Days 16    
Growing Degree Days 31 (Base 50)    
Moisture  
Dew Point 72 °F    
Average Humidity 82    
Maximum Humidity 94    
Minimum Humidity 60    
Precipitation  
Precipitation 0.33 in - - ()
Sea Level Pressure  
Sea Level Pressure 29.92 in    
Wind  
Wind Speed 3 mph (ENE)    
Max Wind Speed 21 mph    
Max Gust Speed 30 mph    
Visibility 8 miles    
Events Fog , Rain , Thunderstorm    
Averages and records for this station are not official NWS values.
T = Trace of Precipitation, MM = Missing Value Source: NWS Daily Summary

Daily Weather History Graph

Daily Weather History Graph

Search for Another Location

Airport or City:

Trip Planner

Search our weather history database for the weather conditions in past years. The results will help you decide how hot, cold, wet, or windy it might be!

Date:

Astronomy

Aug. 22, 2014 Rise Set
Actual Time 6:40 AM CDT 8:13 PM CDT
Civil Twilight 6:11 AM CDT 8:42 PM CDT
Nautical Twilight 5:36 AM CDT 9:17 PM CDT
Astronomical Twilight 4:58 AM CDT 9:54 PM CDT
Moon 4:03 AM CDT (8/22) 6:22 PM CDT (8/22)
Length of Visible Light 14h 30m
Length of Day
13h 32m
Waning Crescent, 7% of the Moon is Illuminated
Aug 22
Waning Crescent
Aug 25
New
Sep 2
First Quarter
Sep 8
Full
Sep 15
Last Quarter

Hourly Weather History & Observations

Time (CDT) Temp. Heat Index Dew Point Humidity Pressure Visibility Wind Dir Wind Speed Gust Speed Precip Events Conditions
12:15 AM 75.2 °F - 69.8 °F 83% 29.88 in 10.0 mi Calm Calm - N/A Thunderstorm Scattered Clouds
12:35 AM 74.7 °F - 70.3 °F 86% 29.87 in 10.0 mi South 3.5 mph - 0.01 in Rain , Thunderstorm Light Thunderstorms and Rain
12:55 AM 74.3 °F - 70.9 °F 89% 29.88 in 10.0 mi East 3.5 mph - 0.01 in Thunderstorm Overcast
1:15 AM 74.3 °F - 71.2 °F 90% 29.90 in 10.0 mi Calm Calm - N/A   Overcast
1:35 AM 74.3 °F - 71.4 °F 91% 29.89 in 10.0 mi ENE 5.8 mph - N/A   Mostly Cloudy
2:15 AM 74.1 °F - 70.9 °F 90% 29.88 in 10.0 mi NE 3.5 mph - N/A   Clear
2:35 AM 74.5 °F - 71.1 °F 89% 29.89 in 10.0 mi NE 3.5 mph - N/A   Mostly Cloudy
2:55 AM 75.0 °F - 70.7 °F 86% 29.89 in 10.0 mi ENE 5.8 mph - N/A   Mostly Cloudy
3:15 AM 75.4 °F - 71.6 °F 88% 29.88 in 10.0 mi NE 3.5 mph - N/A   Clear
3:35 AM 75.4 °F - 71.8 °F 89% 29.90 in 10.0 mi Calm Calm - N/A   Scattered Clouds
3:55 AM 75.6 °F - 72.0 °F 89% 29.90 in 10.0 mi Calm Calm - N/A   Scattered Clouds
4:15 AM 75.2 °F - 71.8 °F 89% 29.90 in 10.0 mi SE 3.5 mph - N/A   Clear
4:35 AM 74.5 °F - 71.4 °F 90% 29.90 in 10.0 mi Calm Calm - N/A   Clear
4:55 AM 74.7 °F - 71.6 °F 90% 29.90 in 10.0 mi Calm Calm - N/A   Clear
5:15 AM 73.8 °F - 71.2 °F 92% 29.89 in 7.0 mi Calm Calm - N/A   Clear
5:35 AM 74.3 °F - 71.8 °F 92% 29.89 in 7.0 mi Calm Calm - N/A   Clear
5:55 AM 74.7 °F - 72.1 °F 92% 29.90 in 7.0 mi Calm Calm - N/A   Clear
6:15 AM 73.4 °F - 71.1 °F 92% 29.90 in 5.0 mi Calm Calm - N/A   Clear
6:35 AM 73.9 °F - 71.6 °F 92% 29.91 in 7.0 mi Calm Calm - N/A   Clear
6:55 AM 73.6 °F - 71.2 °F 92% 29.91 in 4.0 mi Calm Calm - N/A   Clear
7:15 AM 74.1 °F - 71.8 °F 92% 29.91 in 5.0 mi Calm Calm - N/A   Clear
7:35 AM 75.0 °F - 72.3 °F 91% 29.91 in 5.0 mi Calm Calm - N/A   Clear
7:55 AM 75.9 °F - 72.9 °F 90% 29.91 in 7.0 mi Calm Calm - N/A   Clear
8:15 AM 77.9 °F - 73.4 °F 86% 29.91 in 10.0 mi North 3.5 mph - N/A   Clear
8:35 AM 78.3 °F - 73.0 °F 84% 29.91 in 10.0 mi Calm Calm - N/A   Clear
8:55 AM 79.3 °F - 73.0 °F 81% 29.92 in 10.0 mi Calm Calm - N/A   Clear
9:15 AM 80.6 °F 85.4 °F 73.4 °F 79% 29.92 in 10.0 mi ENE 3.5 mph - N/A   Clear
9:35 AM 81.5 °F 86.7 °F 73.4 °F 76% 29.93 in 10.0 mi East 3.5 mph - N/A   Clear
9:55 AM 82.6 °F 88.8 °F 74.1 °F 75% 29.93 in 10.0 mi SE 4.6 mph - N/A   Clear
10:15 AM 82.8 °F 89.2 °F 73.9 °F 75% 29.93 in 10.0 mi Calm Calm - N/A   Clear
10:35 AM 83.1 °F 89.8 °F 74.1 °F 74% 29.93 in 10.0 mi Calm Calm - N/A   Clear
10:55 AM 83.1 °F 90.1 °F 74.5 °F 75% 29.93 in 10.0 mi South 4.6 mph - N/A   Clear
11:15 AM 84.6 °F 92.4 °F 74.8 °F 72% 29.93 in 10.0 mi SE 4.6 mph - N/A   Clear
11:35 AM 85.5 °F 93.8 °F 74.7 °F 70% 29.93 in 10.0 mi ESE 4.6 mph - N/A   Clear
11:55 AM 85.5 °F 93.4 °F 74.3 °F 69% 29.93 in 10.0 mi NE 3.5 mph - N/A   Scattered Clouds
12:15 PM 86.4 °F 94.6 °F 74.1 °F 67% 29.93 in 10.0 mi Calm Calm - N/A   Scattered Clouds
12:35 PM 86.7 °F 95.0 °F 74.3 °F 66% 29.94 in 10.0 mi Calm Calm - N/A   Scattered Clouds
12:55 PM 86.4 °F 94.6 °F 74.3 °F 67% 29.94 in 10.0 mi Calm Calm - N/A   Scattered Clouds
1:15 PM 86.5 °F 96.4 °F 75.6 °F 70% 29.94 in 10.0 mi East 5.8 mph - N/A   Mostly Cloudy
1:35 PM 87.4 °F 95.8 °F 73.9 °F 64% 29.93 in 10.0 mi NE 3.5 mph - N/A   Mostly Cloudy
1:55 PM 88.9 °F 99.7 °F 75.6 °F 65% 29.92 in 10.0 mi ENE 8.1 mph - N/A   Scattered Clouds
2:15 PM 88.9 °F 99.2 °F 75.2 °F 64% 29.91 in 10.0 mi ENE 5.8 mph - N/A   Clear
2:35 PM 89.8 °F 100.3 °F 75.4 °F 62% 29.92 in 10.0 mi NE 8.1 mph - N/A   Mostly Cloudy
2:55 PM 90.5 °F 100.9 °F 74.7 °F 60% 29.91 in 10.0 mi ENE 8.1 mph - N/A   Scattered Clouds
3:15 PM 90.1 °F 100.6 °F 74.8 °F 61% 29.91 in 10.0 mi NE 5.8 mph - N/A   Clear
3:35 PM 89.8 °F 99.7 °F 74.7 °F 61% 29.92 in 10.0 mi ENE 4.6 mph - N/A   Scattered Clouds
3:55 PM 90.1 °F 100.6 °F 75.2 °F 61% 29.91 in 10.0 mi NE 5.8 mph - N/A   Mostly Cloudy
4:15 PM 89.1 °F 98.5 °F 74.3 °F 62% 29.90 in 10.0 mi ENE 10.4 mph - N/A   Scattered Clouds
4:35 PM 88.3 °F 98.4 °F 75.2 °F 65% 29.90 in 10.0 mi East 11.5 mph - N/A Thunderstorm Mostly Cloudy
4:55 PM 80.2 °F 82.5 °F 66.7 °F 63% 29.89 in 10.0 mi SE 16.1 mph 29.9 mph N/A Thunderstorm Thunderstorm
5:15 PM 73.9 °F - 67.5 °F 80% 29.96 in 1.8 mi SSE 20.7 mph 26.5 mph 0.07 in Rain Heavy Rain
5:35 PM 72.1 °F - 66.2 °F 82% 29.92 in 4.0 mi Calm Calm - 0.32 in Rain , Thunderstorm Rain
5:55 PM 72.1 °F - 68.5 °F 88% 29.90 in 10.0 mi Calm Calm - 0.32 in Rain , Thunderstorm Light Thunderstorms and Rain
6:15 PM 72.7 °F - 68.5 °F 87% 29.90 in 10.0 mi SW 4.6 mph - N/A Rain , Thunderstorm Light Thunderstorms and Rain
6:55 PM 74.3 °F - 69.8 °F 86% 29.93 in 10.0 mi NNE 8.1 mph - N/A Thunderstorm Clear
7:15 PM 74.5 °F - 71.1 °F 89% 29.94 in 10.0 mi North 5.8 mph - N/A   Scattered Clouds
7:35 PM 74.7 °F - 72.0 °F 91% 29.94 in 7.0 mi NNW 3.5 mph - N/A   Mostly Cloudy
7:55 PM 75.4 °F - 72.5 °F 91% 29.94 in 7.0 mi North 8.1 mph - N/A   Scattered Clouds
8:15 PM 75.4 °F - 72.5 °F 91% 29.91 in 7.0 mi NE 4.6 mph - N/A   Clear
8:55 PM 75.2 °F - 72.9 °F 92% 29.93 in 5.0 mi Calm Calm - N/A Rain Light Rain
9:15 PM 75.2 °F - 72.9 °F 92% 29.93 in 5.0 mi East 5.8 mph - N/A   Scattered Clouds
9:35 PM 75.4 °F - 73.4 °F 94% 29.94 in 3.0 mi Calm Calm - N/A   Mostly Cloudy
9:55 PM 75.7 °F - 73.6 °F 93% 29.95 in 0.5 mi Calm Calm - N/A Fog Fog
10:15 PM 75.2 °F - 73.4 °F 94% 29.94 in 1.2 mi NNE 10.4 mph - N/A   Overcast
10:35 PM 74.3 °F - 72.5 °F 94% 29.95 in 4.0 mi NNE 5.8 mph - N/A   Overcast
10:55 PM 74.3 °F - 72.3 °F 94% 29.95 in 5.0 mi North 6.9 mph - N/A   Overcast
11:15 PM 73.9 °F - 72.0 °F 93% 29.94 in 5.0 mi NE 6.9 mph - N/A   Mostly Cloudy
11:35 PM 73.8 °F - 71.8 °F 93% 29.93 in 5.0 mi NE 6.9 mph - N/A   Clear